SL-12 R/B(2), 18578

Orbit data source: Space-Track

SL-12 R/B(2), 18578 is space debris in GEO originally from a launch on Thu, 26 Nov 1987 UTC launched from the Tyuratam Missile And Space Complex (TTMTR). Debris objects in space refer to the collection of defunct objects orbiting the Earth. Examples of debris include non-operational satellites, rocket bodies, and fragments generated from explosions, collisions, or faulty payload assembly.

Loading next visibility...
Identifier
18578, 1987-096D
Orbit
GEO
Country
Flag of CISCIS
Related business
Manufacturer
NPO Energiya
Mission
Spacecraft
Bus & Motor
BLOK DM, Unknown motor
Mass
2,440 kg wet, 2,440 kg dry
Launch date (UTC)
1987-11-26 (38 years ago)
Launch vehicle
Unknown
Launch site
Tyuratam Missile And Space Complex (TTMTR)
Object type
Payload
Rocket body
Debris
Shape & HBR
Cyl, 3.1 m
Radar Cross Section
23.597 m², Large (>1 m²)

Expand to show TLE details & history
Last TLE update: 9 hours ago

TLE from 9 hours ago
0 SL-12 R/B(2)
1 18578U 87096D   26072.44156620 -.00000286  00000-0  00000-0 0  9991
2 18578  10.9502 326.7877 0022001 249.2433  44.5402  1.00572934137067
Epoch: 2026-03-13T10:35Z
TLE epoch observation values (Epoch: 2026-03-13T10:35:51.319Z)
Latitude
-9.99393°
Longitude
-68.8692°
Altitude
35,638.319 km
Speed
3.082 km/s
True Right ascension
17h 24m 41s
True Declination
-9° 59' 02"
Sunlit
Object was in daylight at epoch
Visualization orbit readout
Latitude
Unknown
Longitude
Unknown
Altitude
Unknown
Speed
Unknown
Apparent Right ascension
Unknown
Apparent Declination
Unknown
Sunlit
N/A
Visualization observer readout
Local Sidereal Time
00:11:36
Azimuth
Unknown
Elevation
Unknown
Doppler factor
Unknown
Orbital elements
Apogee altitude
35,795.982 km
Perigee altitude
35,610.815 km
Semi-major axis
42,081.535 km
Eccentricity
0.0022
Inclination
10.9502°
RAAN
326.7877°
Arg. of periapsis
249.2433°
True anomaly
44.71738°
Mean anomaly
44.5402°
Eccentric anomaly
44.62876°
Mean motion
0.25142 °/min
Orbital period
1,431.85 mins
BSTAR
0
Loading maneuver chart data...
Computing Atmospheric mass density...
Loading historical data...
Loading historical data...
Loading historical data...
Loading historical data...
Loading historical data...
Loading historical data...
Loading historical data...

Documentation

Showing up to 5 results
|